Time,TemperatureF,DewpointF,PressureIn,WindDirection,WindDirectionDegrees,WindSpeedMPH,WindSpeedGustMPH,Humidity,HourlyPrecipIn,Conditions,Clouds,dailyrainin,SoftwareType,DateUTC
2013-10-22 00:13:00,29.0,26.0,30.03,ENE,78,3.0,-999.0,90,-99.99,,,-99.99,,2013-10-22 05:13:00,
2013-10-22 00:22:00,29.0,27.0,30.03,East,79,3.0,-999.0,91,-99.99,,,-99.99,,2013-10-22 05:22:00,
2013-10-22 00:52:00,29.0,27.0,30.04,ENE,78,1.0,-999.0,91,-99.99,,,-99.99,,2013-10-22 05:52:00,
2013-10-22 01:12:00,29.0,27.0,30.05,ENE,78,2.0,-999.0,91,-99.99,,,-99.99,,2013-10-22 06:12:00,
2013-10-22 01:22:00,29.0,27.0,30.04,ENE,78,2.0,-999.0,91,-99.99,,,-99.99,,2013-10-22 06:22:00,
2013-10-22 01:42:00,29.0,27.0,30.05,ENE,78,2.0,-999.0,91,-99.99,,,-99.99,,2013-10-22 06:42:00,
2013-10-22 01:53:00,29.0,27.0,30.06,ENE,78,1.0,-999.0,91,-99.99,,,-99.99,,2013-10-22 06:53:00,
2013-10-22 02:12:00,29.0,27.0,30.05,ENE,78,2.0,-999.0,91,-99.99,,,-99.99,,2013-10-22 07:12:00,
2013-10-22 02:22:00,29.0,27.0,30.05,ENE,78,2.0,-999.0,91,-99.99,,,-99.99,,2013-10-22 07:22:00,
2013-10-22 02:52:00,29.0,27.0,30.06,ENE,78,0.0,-999.0,91,-99.99,,,-99.99,,2013-10-22 07:52:00,
2013-10-22 03:12:00,29.0,27.0,30.06,ENE,78,0.0,-999.0,91,-99.99,,,-99.99,,2013-10-22 08:12:00,
2013-10-22 03:22:00,29.0,27.0,30.06,ENE,78,0.0,-999.0,91,-99.99,,,-99.99,,2013-10-22 08:22:00,
2013-10-22 03:42:00,29.0,27.0,30.06,ENE,78,0.0,-999.0,91,-99.99,,,-99.99,,2013-10-22 08:42:00,
2013-10-22 03:52:00,29.0,26.0,30.06,ENE,78,0.0,-999.0,90,-99.99,,,-99.99,,2013-10-22 08:52:00,
2013-10-22 04:11:00,29.0,26.0,30.06,ENE,78,0.0,-999.0,90,-99.99,,,-99.99,,2013-10-22 09:11:00,
2013-10-22 04:21:00,29.0,26.0,30.07,ENE,78,0.0,-999.0,90,-99.99,,,-99.99,,2013-10-22 09:21:00,
2013-10-22 04:53:00,29.0,26.0,30.08,ENE,78,0.0,-999.0,89,-99.99,,,-99.99,,2013-10-22 09:53:00,
2013-10-22 05:13:00,29.0,26.0,30.07,ENE,78,0.0,-999.0,90,-99.99,,,-99.99,,2013-10-22 10:13:00,
2013-10-22 05:23:00,29.0,26.0,30.07,ENE,78,0.0,-999.0,90,-99.99,,,-99.99,,2013-10-22 10:23:00,
2013-10-22 05:43:00,29.0,26.0,30.07,ENE,78,1.0,-999.0,90,-99.99,,,-99.99,,2013-10-22 10:43:00,
2013-10-22 05:53:00,29.0,26.0,30.08,ENE,78,1.0,-999.0,90,-99.99,,,-99.99,,2013-10-22 10:53:00,
2013-10-22 06:22:00,29.0,26.0,30.09,ENE,67,2.0,-999.0,90,-99.99,,,-99.99,,2013-10-22 11:22:00,
2013-10-22 06:52:00,29.0,26.0,30.11,ENE,60,3.0,-999.0,90,-99.99,,,-99.99,,2013-10-22 11:52:00,
2013-10-22 07:11:00,29.0,26.0,30.11,NNE,25,4.0,-999.0,90,-99.99,,,-99.99,,2013-10-22 12:11:00,
2013-10-22 07:22:00,29.0,26.0,30.11,North,11,5.0,-999.0,90,-99.99,,,-99.99,,2013-10-22 12:22:00,
2013-10-22 07:42:00,29.0,26.0,30.11,North,360,6.0,-999.0,90,-99.99,,,-99.99,,2013-10-22 12:42:00,
2013-10-22 07:52:00,29.0,26.0,30.11,North,360,4.0,-999.0,90,-99.99,,,-99.99,,2013-10-22 12:52:00,
2013-10-22 08:12:00,29.0,26.0,30.12,North,5,3.0,-999.0,90,-99.99,,,-99.99,,2013-10-22 13:12:00,
2013-10-22 08:21:00,29.0,26.0,30.13,North,5,3.0,-999.0,90,-99.99,,,-99.99,,2013-10-22 13:21:00,
2013-10-22 08:42:00,29.0,26.0,30.13,North,5,5.0,-999.0,89,-99.99,,,-99.99,,2013-10-22 13:42:00,
2013-10-22 08:53:00,29.0,26.0,30.14,North,9,4.0,-999.0,88,-99.99,,,-99.99,,2013-10-22 13:53:00,
2013-10-22 09:11:00,28.0,25.0,30.14,North,9,5.0,-999.0,88,-99.99,,,-99.99,,2013-10-22 14:11:00,
2013-10-22 09:21:00,28.0,25.0,30.14,North,360,4.0,-999.0,88,-99.99,,,-99.99,,2013-10-22 14:21:00,
2013-10-22 09:42:00,29.0,26.0,30.15,North,360,4.0,-999.0,88,-99.99,,,-99.99,,2013-10-22 14:42:00,
2013-10-22 09:52:00,29.0,26.0,30.15,North,360,5.0,-999.0,87,-99.99,,,-99.99,,2013-10-22 14:52:00,
2013-10-22 10:22:00,29.0,26.0,30.16,North,355,5.0,-999.0,87,-99.99,,,-99.99,,2013-10-22 15:22:00,
2013-10-22 10:54:00,29.0,25.0,30.16,North,355,4.0,-999.0,85,-99.99,,,-99.99,,2013-10-22 15:54:00,
2013-10-22 11:23:00,30.0,26.0,30.16,NNW,338,4.0,-999.0,84,-99.99,,,-99.99,,2013-10-22 16:23:00,
2013-10-22 11:43:00,31.0,26.0,30.16,North,349,5.0,-999.0,81,-99.99,,,-99.99,,2013-10-22 16:43:00,
2013-10-22 11:53:00,32.0,26.0,30.16,NNW,341,4.0,-999.0,79,-99.99,,,-99.99,,2013-10-22 16:53:00,
2013-10-22 12:12:00,33.0,27.0,30.16,NW,321,5.0,-999.0,78,-99.99,,,-99.99,,2013-10-22 17:12:00,
2013-10-22 12:22:00,33.0,27.0,30.16,NW,311,6.0,-999.0,77,-99.99,,,-99.99,,2013-10-22 17:22:00,
2013-10-22 12:43:00,33.0,26.0,30.16,NW,319,7.0,-999.0,75,-99.99,,,-99.99,,2013-10-22 17:43:00,
2013-10-22 12:52:00,33.0,26.0,30.16,NW,322,6.0,-999.0,76,-99.99,,,-99.99,,2013-10-22 17:52:00,
2013-10-22 13:12:00,33.0,27.0,30.16,NW,323,7.0,-999.0,78,-99.99,,,-99.99,,2013-10-22 18:12:00,
2013-10-22 13:22:00,34.0,28.0,30.16,NNW,329,6.0,-999.0,77,-99.99,,,-99.99,,2013-10-22 18:22:00,
2013-10-22 13:42:00,33.0,26.0,30.15,NW,322,5.0,-999.0,76,-99.99,,,-99.99,,2013-10-22 18:42:00,
2013-10-22 13:52:00,34.0,27.0,30.15,North,5,7.0,-999.0,76,-99.99,,,-99.99,,2013-10-22 18:52:00,
2013-10-22 14:12:00,34.0,28.0,30.14,NNW,329,6.0,-999.0,77,-99.99,,,-99.99,,2013-10-22 19:12:00,
2013-10-22 14:22:00,34.0,28.0,30.14,NNW,331,5.0,-999.0,77,-99.99,,,-99.99,,2013-10-22 19:22:00,
2013-10-22 14:42:00,35.0,28.0,30.14,NNW,338,8.0,-999.0,76,-99.99,,,-99.99,,2013-10-22 19:42:00,
2013-10-22 14:52:00,35.0,28.0,30.14,WNW,298,6.0,-999.0,75,-99.99,,,-99.99,,2013-10-22 19:52:00,
2013-10-22 15:22:00,35.0,28.0,30.12,WNW,298,6.0,-999.0,74,-99.99,,,-99.99,,2013-10-22 20:22:00,
2013-10-22 15:43:00,36.0,28.0,30.13,NW,307,6.0,-999.0,72,-99.99,,,-99.99,,2013-10-22 20:43:00,
2013-10-22 15:52:00,35.0,27.0,30.12,WNW,302,6.0,-999.0,73,-99.99,,,-99.99,,2013-10-22 20:52:00,
2013-10-22 16:12:00,35.0,28.0,30.12,WNW,302,5.0,-999.0,74,-99.99,,,-99.99,,2013-10-22 21:12:00,
2013-10-22 16:23:00,35.0,27.0,30.12,WNW,302,7.0,-999.0,72,-99.99,,,-99.99,,2013-10-22 21:23:00,
2013-10-22 16:44:00,35.0,28.0,30.13,WNW,300,6.0,-999.0,74,-99.99,,,-99.99,,2013-10-22 21:44:00,
2013-10-22 16:54:00,35.0,28.0,30.13,NW,304,6.0,-999.0,74,-99.99,,,-99.99,,2013-10-22 21:54:00,
2013-10-22 17:14:00,34.0,27.0,30.13,WNW,301,7.0,-999.0,76,-99.99,,,-99.99,,2013-10-22 22:14:00,
2013-10-22 17:24:00,34.0,28.0,30.13,NW,314,5.0,-999.0,77,-99.99,,,-99.99,,2013-10-22 22:24:00,
2013-10-22 17:44:00,34.0,27.0,30.13,NW,313,4.0,-999.0,76,-99.99,,,-99.99,,2013-10-22 22:44:00,
2013-10-22 17:54:00,33.0,27.0,30.13,NW,320,3.0,-999.0,77,-99.99,,,-99.99,,2013-10-22 22:54:00,
2013-10-22 18:12:00,33.0,27.0,30.12,NW,319,3.0,-999.0,78,-99.99,,,-99.99,,2013-10-22 23:12:00,
2013-10-22 18:23:00,33.0,27.0,30.12,NW,319,2.0,-999.0,79,-99.99,,,-99.99,,2013-10-22 23:23:00,
2013-10-22 18:43:00,33.0,27.0,30.12,NW,319,1.0,-999.0,79,-99.99,,,-99.99,,2013-10-22 23:43:00,
2013-10-22 18:53:00,33.0,28.0,30.12,NW,319,0.0,-999.0,80,-99.99,,,-99.99,,2013-10-22 23:53:00,
2013-10-22 19:11:00,33.0,28.0,30.12,NW,319,0.0,-999.0,81,-99.99,,,-99.99,,2013-10-23 00:11:00,
2013-10-22 19:22:00,33.0,28.0,30.11,NW,319,0.0,-999.0,82,-99.99,,,-99.99,,2013-10-23 00:22:00,
2013-10-22 19:42:00,33.0,28.0,30.11,NW,319,0.0,-999.0,82,-99.99,,,-99.99,,2013-10-23 00:42:00,
2013-10-22 19:52:00,33.0,28.0,30.11,NW,319,0.0,-999.0,82,-99.99,,,-99.99,,2013-10-23 00:52:00,
2013-10-22 20:11:00,33.0,28.0,30.11,NW,319,0.0,-999.0,82,-99.99,,,-99.99,,2013-10-23 01:11:00,
2013-10-22 20:23:00,33.0,28.0,30.10,NW,319,0.0,-999.0,82,-99.99,,,-99.99,,2013-10-23 01:23:00,
2013-10-22 20:42:00,33.0,28.0,30.10,NW,319,0.0,-999.0,83,-99.99,,,-99.99,,2013-10-23 01:42:00,
2013-10-22 20:52:00,33.0,28.0,30.10,NW,319,0.0,-999.0,83,-99.99,,,-99.99,,2013-10-23 01:52:00,
2013-10-22 21:11:00,33.0,28.0,30.10,NW,319,0.0,-999.0,83,-99.99,,,-99.99,,2013-10-23 02:11:00,
2013-10-22 21:22:00,33.0,28.0,30.10,NW,319,0.0,-999.0,83,-99.99,,,-99.99,,2013-10-23 02:22:00,
2013-10-22 21:42:00,33.0,29.0,30.10,NW,319,0.0,-999.0,84,-99.99,,,-99.99,,2013-10-23 02:42:00,
2013-10-22 21:53:00,33.0,29.0,30.09,NW,319,0.0,-999.0,84,-99.99,,,-99.99,,2013-10-23 02:53:00,
2013-10-22 22:12:00,33.0,29.0,30.09,NW,319,0.0,-999.0,84,-99.99,,,-99.99,,2013-10-23 03:12:00,
2013-10-22 22:22:00,33.0,29.0,30.09,NW,319,0.0,-999.0,84,-99.99,,,-99.99,,2013-10-23 03:22:00,
2013-10-22 22:44:00,33.0,29.0,30.09,NW,319,1.0,-999.0,85,-99.99,,,-99.99,,2013-10-23 03:44:00,
2013-10-22 22:55:00,33.0,29.0,30.09,NW,319,1.0,-999.0,85,-99.99,,,-99.99,,2013-10-23 03:55:00,
2013-10-22 23:14:00,33.0,29.0,30.09,NW,319,1.0,-999.0,85,-99.99,,,-99.99,,2013-10-23 04:14:00,
2013-10-22 23:24:00,33.0,29.0,30.08,NW,319,1.0,-999.0,86,-99.99,,,-99.99,,2013-10-23 04:24:00,
2013-10-22 23:45:00,33.0,29.0,30.08,NW,319,2.0,-999.0,86,-99.99,,,-99.99,,2013-10-23 04:45:00,
2013-10-22 23:54:00,33.0,29.0,30.08,NW,319,1.0,-999.0,86,-99.99,,,-99.99,,2013-10-23 04:54:00,